User: anonymous   Login
Location: Muenchen
(48.1800°N, 11.5800°E)
Time: 14:14:30
(UTC+02:00)
Language:

Iridium 73 - Orbit

View from above orbital plane
View from above orbital plane
View from above satellite
View from above satellite

Ground track
Ground track

The orbit data is extracted from the following two-line orbital elements,

1 25344U 98032C   16268.20446672  .00000142  00000-0  32173-4 0  9991
2 25344  86.4423 315.3531 0001785 105.8413 254.2988 14.48970038969030
Epoch (UTC): 24 September 2016 04:54:25
Eccentricity: 0.0001785
inclination: 86.4423°
perigee height: 728 km
apogee height: 730 km
right ascension of ascending node: 315.3531°
argument of perigee: 105.8413°
revolutions per day: 14.48970038
mean anomaly at epoch: 254.2988°
orbit number at epoch: 96903

The dashed part of the orbit path shows where the satellite is in the earth's shadow,  

DLR